Fresno, CA

6:16 AM PST on November 21, 2019 (GMT -0800)
Fresno Yosemite International

Weather History for KFAT - September, 2019

Change the Weather History Date:

Wednesday, September 11, 2019

  Actual Average Record
Temperature  
Mean Temperature 73 °F 78 °F  
Max Temperature 87 °F 92 °F 111 °F (1888)
Min Temperature 59 °F 63 °F 44 °F (1952)
Degree Days  
Heating Degree Days 0    
Month to date heating degree days 0  
Since 1 July heating degree days 0  
Cooling Degree Days 8    
Month to date cooling degree days 182  
Year to date cooling degree days 2123  
Growing Degree Days 24 (Base 50)    
Moisture  
Dew Point 48 °F    
Average Humidity 47    
Maximum Humidity 72    
Minimum Humidity 21    
Precipitation  
Precipitation 0.00 in 0.01 in 0.42 in (1976)
Month to date precipitation 0.00 0.03  
Year to date precipitation 9.52 7.89  
Snow  
Snow 0.00 in - - ()
Month to date snowfall 0.0  
Since 1 July snowfall 0.0  
Since 1 September snowfall 0.0  
Snow Depth 0.00 in    
Sea Level Pressure  
Sea Level Pressure 29.98 in    
Wind  
Wind Speed 6 mph (NW)    
Max Wind Speed 14 mph    
Max Gust Speed 18 mph    
Visibility 10 miles    
Events      
T = Trace of Precipitation, MM = Missing Value Source: NWS Daily Summary

Daily Weather History Graph

Daily Weather History Graph

Search for Another Location

Airport or City:

Astronomy

Sep. 11, 2019 Rise Set
Actual Time 6:37 AM PDT 7:12 PM PDT
Civil Twilight 6:11 AM PDT 7:38 PM PDT
Nautical Twilight 5:40 AM PDT 8:09 PM PDT
Astronomical Twilight 5:09 AM PDT 8:40 PM PDT
Moon 6:22 PM PDT (9/11) 4:10 AM PDT (9/11)
Length of Visible Light 13h 26m
Length of Day
12h 34m
Waxing Gibbous, 95% of the Moon is Illuminated
Sep 11
Waxing Gibbous
Sep 13
Full
Sep 21
Last Quarter
Sep 28
New
Oct 5
First Quarter

Hourly Weather History & Observations

Time (PDT) Temp. Dew Point Humidity Pressure Visibility Wind Dir Wind Speed Gust Speed Precip Events Conditions
12:53 AM 68.0 °F 53.1 °F 59% 29.92 in 10.0 mi NW 13.8 mph - N/A   Clear
1:53 AM 66.0 °F 53.1 °F 63% 29.93 in 10.0 mi NW 11.5 mph - N/A   Clear
2:53 AM 63.0 °F 52.0 °F 67% 29.94 in 10.0 mi NNW 4.6 mph - N/A   Clear
3:53 AM 62.1 °F 53.1 °F 72% 29.95 in 10.0 mi NNW 4.6 mph - N/A   Clear
4:53 AM 61.0 °F 52.0 °F 72% 29.96 in 10.0 mi North 3.5 mph - N/A   Clear
5:53 AM 60.1 °F 52.0 °F 75% 29.98 in 10.0 mi North 3.5 mph - N/A   Clear
6:53 AM 60.1 °F 52.0 °F 75% 30.00 in 10.0 mi Calm Calm - N/A   Clear
8:53 AM 68.0 °F 50.0 °F 52% 30.04 in 10.0 mi Variable 3.5 mph - N/A   Partly Cloudy
9:53 AM 70.0 °F 48.0 °F 46% 30.04 in 10.0 mi SSE 3.5 mph - N/A   Clear
10:53 AM 75.0 °F 48.0 °F 38% 30.04 in 10.0 mi Variable 4.6 mph - N/A   Clear
11:53 AM 78.1 °F 46.9 °F 33% 30.04 in 10.0 mi South 3.5 mph - N/A   Clear
12:53 PM 82.0 °F 46.0 °F 28% 30.03 in 10.0 mi West 8.1 mph - N/A   Clear
1:53 PM 84.0 °F 44.1 °F 25% 30.01 in 10.0 mi West 8.1 mph - N/A   Clear
2:53 PM 84.9 °F 45.0 °F 25% 29.98 in 10.0 mi SSW 5.8 mph - N/A   Clear
3:53 PM 86.0 °F 44.1 °F 23% 29.97 in 10.0 mi Variable 3.5 mph - N/A   Clear
4:53 PM 86.0 °F 43.0 °F 22% 29.96 in 10.0 mi Variable 5.8 mph - N/A   Clear
5:53 PM 86.0 °F 39.9 °F 20% 29.95 in 10.0 mi NW 9.2 mph - N/A   Clear
6:53 PM 84.0 °F 44.1 °F 25% 29.95 in 10.0 mi West 10.4 mph - N/A   Clear
7:53 PM 82.0 °F 48.9 °F 31% 29.95 in 10.0 mi WNW 8.1 mph - N/A   Clear
8:53 PM 80.1 °F 50.0 °F 35% 29.97 in 10.0 mi NW 5.8 mph - N/A   Clear
9:53 PM 78.1 °F 48.9 °F 36% 29.98 in 10.0 mi North 4.6 mph - N/A   Clear
10:53 PM 75.9 °F 48.9 °F 38% 29.98 in 10.0 mi Calm Calm - N/A   Clear
11:53 PM 73.9 °F 48.9 °F 41% 29.99 in 10.0 mi Calm Calm - N/A   Clear